Regional Weather Roundup
Issued by NWS

Home | Current Version | Previous Version | Text Only | Print | Product List | Glossary On
Versions: 1 2 3 4 5 6 7 8 9 10 11 12 13 14 15 16 17 18 19 20 21 22 23 24 25 26 27 28 29 30 31 32 33 34 35 36 37 38 39 40 41 42 43 44 45 46 47 48 49 50
000
ASUS43 KMPX 250010
RWRMN
WEATHER ROUNDUP FOR MINNESOTA
NATIONAL WEATHER SERVICE TWIN CITIES/CHANHASSEN MN
700 PM CDT SUN JUL 24 2016


NOTE: "FAIR" INDICATES FEW OR NO CLOUDS BELOW 12,000 FEET WITH NO
SIGNIFICANT WEATHER AND/OR OBSTRUCTIONS TO VISIBILITY. N/A MEANS
CURRENT SKY AND/OR WEATHER CONDITIONS ARE NOT AVAILABLE.

MNZ060>063-068>070-250100-
   Twin Cities Metro

CITY           SKY/WX    TMP DP  RH WIND       PRES   REMARKS
TWIN CITIES    CLOUDY    81  62  52 NW13      29.93S
6HR MIN TEMP:  80; 6HR MAX TEMP:  85;

ST PAUL        MOSUNNY   81  60  48 W17G24    29.92F
CRYSTAL        MOSUNNY   81  61  50 NW14G24   29.92S
BLAINE         MOSUNNY   82  63  51 W17       29.93S
LAKEVILLE      SUNNY     77  64  65 W9        29.94S
EDEN PRAIRIE   MOSUNNY   82  62  50 NW17      29.93S
6HR MIN TEMP:  81; 6HR MAX TEMP:  85;

LAKEVILLE      SUNNY     77  64  65 W9        29.94S
SOUTH ST PAUL  SUNNY     82  60  47 W13       29.92F
LAKE ELMO      FAIR      79  63  57 W12       29.93F
$$
MNZ001>005-007-008-013>017-022>024-027-028-250100-
   Northwest Minnesota

CITY           SKY/WX    TMP DP  RH WIND       PRES   REMARKS
BEMIDJI        MOSUNNY   77  59  53 W15       29.91R
HALLOCK        MOSUNNY   72  64  78 N6        29.89R
ROSEAU         SUNNY     75  64  69 W12G20    29.87R
WARROAD        SUNNY     75  63  64 W14G21    29.86R
THIEF RVR FALL SUNNY     76  61  59 W15G21    29.91S
CROOKSTON      SUNNY     77  64  65 NW13      29.92R
FOSSTON        SUNNY     75  59  57 W10G18    29.93S
DETROIT LAKES  SUNNY     77  59  53 W9        29.97R
MOORHEAD       SUNNY     79  55  44 NW14      29.95S
PARK RAPIDS    SUNNY     78  60  53 NW13      29.93R
MAHNOMEN       MOCLDY    74  61  63 W14       29.94R
$$
MNZ006-009>011-018-025>026-250100-
   North Central Minnesota

CITY           SKY/WX    TMP DP  RH WIND       PRES   REMARKS
BAUDETTE       MOSUNNY   75  58  55 W18G26    29.85R
FLAG ISLAND    MOSUNNY   72  61  68 NW15      29.84R
INTL FALLS     MOSUNNY   75  58  55 W17G29    29.83R
6HR MIN TEMP:  73; 6HR MAX TEMP:  78;

WASKISH        MOSUNNY   75  61  60 W13G24    29.87S
BIG FORK       SUNNY     77  57  50 W10G17    29.87R
LONGVILLE      SUNNY     77  61  57 W8        29.91R
GRAND RAPIDS   MOSUNNY   77  62  59 W8        29.91R
CRANE LAKE     MOSUNNY   75  57  53 W5        29.84R
ORR            MOSUNNY   73  57  56 CALM      29.82R
COOK           MOSUNNY   75  61  60 W9        29.85S
WALKER         FAIR      75  60  60 W10       29.91S
$$
MNZ012-019>021-037-250100-
   Northeast Minnesota

CITY           SKY/WX    TMP DP  RH WIND       PRES   REMARKS
DULUTH         MOSUNNY   78  60  53 W17       29.87S
6HR MIN TEMP:  77; 6HR MAX TEMP:  81;

ELY            MOSUNNY   75  57  53 W17       29.83S
HIBBING        SUNNY     75  58  55 W8G18     29.87R
EVELETH        SUNNY     78  56  46 W10G18    29.87S
DULUTH HARBOR  SUNNY     81  63  54 W17       29.84S
TWO HARBORS    SUNNY     81  64  57 W9G18     29.82F
SILVER BAY     SUNNY     81  59  47 CALM      29.81S
GRAND MARAIS     N/A     79  57  46 W6        29.76R
G MARAIS ARPRT MOSUNNY   73  55  53 W9G21     29.83R
$$
MNZ029>031-032-039>041-046>048-054>057-064-250100-
   West Central Minnesota

CITY           SKY/WX    TMP DP  RH WIND       PRES   REMARKS
FERGUS FALLS   SUNNY     77  59  53 NW13G18   29.97S
WHEATON        SUNNY     81  61  50 W8        29.99S
MORRIS         SUNNY     81  61  50 NW9       29.97S
ALEXANDRIA     SUNNY     78  57  48 NW13      29.98S
ELBOW LAKE     FAIR      77  60  56 NW12G17   29.98S
WADENA         SUNNY     73  57  56 W7        29.95R
GLENWOOD       SUNNY     79  59  50 W9G17     29.98S
APPLETON       SUNNY     81  61  50 NW8       29.97S
BENSON         SUNNY     81  55  41 NW13      29.97S
ORTONVILLE     SUNNY     81  57  44 N9        29.98S
MADISON        SUNNY     81  61  50 NW7       29.98S
WILLMAR        FAIR      79  64  61 W8        29.98S
$$
MNZ033>034-036-042>043-049>051-058-059-250100-
   Central Minnesota

CITY           SKY/WX    TMP DP  RH WIND       PRES   REMARKS
ST CLOUD       SUNNY     79  65  62 W10       29.93F
6HR MIN TEMP:  77; 6HR MAX TEMP:  81;

SAUK CENTRE    FAIR      78  59  52 W9G17     29.96S
PAYNESVILLE    MOSUNNY   77  63  60 W14       29.97S
AITKIN         SUNNY     81  57  44 W7        29.89F
PINE RIVER     MOSUNNY   77  61  57 W9        29.95S
BRAINERD       SUNNY     79  59  50 W12G20    29.92S
STAPLES        MOSUNNY   75  59  57 W8        29.94S
LONG PRAIRIE   FAIR      77  59  53 SW13      29.96F
LITTLE FALLS   SUNNY     79  55  44 W10G20    29.94S
LITCHFIELD     SUNNY     81  66  61 W8        29.97S
BUFFALO        MOSUNNY   80  63  56 W9        29.96S
MAPLE LAKE     SUNNY     79  63  57 W10G16    29.96S
HUTCHINSON     MOSUNNY   79  67  67 W8        29.98S
$$
MNZ037-044-045-052-053-250100-
   East Central Minnesota

CITY           SKY/WX    TMP DP  RH WIND       PRES   REMARKS
PRINCETON      SUNNY     81  63  54 W8        29.93S
MORA           SUNNY     75  59  57 W8        29.93S
CAMBRIDGE      MOSUNNY   81  63  54 W7        29.91S
RUSH CITY      MOSUNNY   78  61  55 W6        29.91F
MOOSE LAKE     MOSUNNY   77  59  53 W5        29.87F
HINCKLEY       FAIR      77  63  61 W8        29.91S
CLOQUET        MOSUNNY   79  55  44 W8        29.88S
MCGREGOR       MOSUNNY   77  61  57 W8        29.90S
$$
MNZ071>073-080-081-089-090-097-098-250100-
   Southwest Minnesota

CITY           SKY/WX    TMP DP  RH WIND       PRES   REMARKS
MONTEVIDEO     SUNNY     82  63  51 NW7       29.99F
GRANITE FALLS  SUNNY     81  65  59 W8        30.00S
CANBY          SUNNY     81  63  54 W9        30.00F
MARSHALL       SUNNY     80  63  55 NW10      30.00S
REDWOOD FALLS  SUNNY     80  64  58 NW10      29.97F
OLIVIA         SUNNY     79  63  57 NW9       29.97F
PIPESTONE      SUNNY     79  55  44 NW10      30.04S
WINDOM         MOSUNNY   77  64  65 W8        30.01R
WORTHINGTON    CLOUDY    76  64  66 NW7       30.04R
JACKSON        PTSUNNY   77  63  61 W8        30.02S
TRACY          SUNNY     79  65  61 NW7       30.01S
SLAYTON        RAIN      77  61  57 NW10      30.04R
$$
MNZ065>067-074>077-082>085-091>093-250100-
   South Central Minnesota

CITY           SKY/WX    TMP DP  RH WIND       PRES   REMARKS
MANKATO        CLOUDY    79  61  53 NW13      29.96S
NEW ULM        MOSUNNY   79  63  57 NW12      29.97S
ST JAMES       PTSUNNY   73  61  64 W9        29.99R
FAIRMONT       CLOUDY    75  54  46 W9        29.99R
GLENCOE        MOSUNNY   79  67  66 W12       29.96S
FARIBAULT      MOSUNNY   77  64  65 W7        29.96S
OWATONNA       CLOUDY    77  64  65 NW9       29.96S
WASECA         CLOUDY    77  66  69 W7        29.97F
ALBERT LEA     PTSUNNY   75  64  69 W5        29.97F
$$
MNZ078>079-086>088-094>096-250100-
   Southeast Minnesota

CITY           SKY/WX    TMP DP  RH WIND       PRES   REMARKS
ROCHESTER      MOSUNNY   75  66  73 NW9       29.96S
6HR MIN TEMP:  75; 6HR MAX TEMP:  83;

RED WING       MOSUNNY   82  63  51 W7        29.90F
STANTON        MOSUNNY   79  64  61 W9G17     29.93S
DODGE CENTER   CLOUDY    75  64  69 NW8       29.95F
WINONA         CLOUDY    79  64  61 NW10      29.92S
AUSTIN         CLOUDY    75  64  69 NW7       29.95S
PRESTON        CLOUDY    74  65  72 NW5       29.94F
$$
ABBREVIATIONS USED IN REMARKS
   TC - TEMPERATURES IN CELSIUS
  WCI - WIND CHILL INDEX
   HX - HEAT INDEX
  VSB - VISIBILITY
$$



USA.gov is the U.S. government's official web portal to all federal, state and local government web resources and services.